Regional Weather Roundup
Issued by NWS

Home | Current Version | Previous Version | Graphics & Text | Print | Product List | Glossary On
Versions: 1 2 3 4 5 6 7 8 9 10 11 12 13 14 15 16 17 18 19 20 21 22 23 24 25 26 27 28 29 30 31 32 33 34 35 36 37 38 39 40 41 42 43 44 45 46 47 48 49 50
000
ASUS43 KLSX 300659
RWRMO

WEATHER SUMMARY FOR MISSOURI
NATIONAL WEATHER SERVICE SPRINGFIELD MO
200 AM CDT THU MAR 30 2017

NOTE: "FAIR" INDICATES FEW OR NO CLOUDS BELOW 12,000 FEET WITH NO
       SIGNIFICANT WEATHER AND/OR OBSTRUCTIONS TO VISIBILITY.
       CURRENT SKY AND/OR WEATHER CONDITIONS ARE NOT AVAILABLE FOR
       CHILLICOTHE AND FARMINGTON.

MOZ001>031-035>038-043-044-053-054-300800-
...NORTHERN AND WESTERN MISSOURI...

CITY           SKY/WX    TMP DP  RH WIND       PRES   REMARKS
KANSAS CTY INT CLOUDY    52  52 100 NE15      29.58F
KANSAS C DTWN  CLOUDY    53  52  96 E9        29.58F
LEE`S SUMMIT   CLOUDY    54  54 100 E12       29.59F FOG
ST JOSEPH      CLOUDY    50  50 100 E13       29.59F
CHILLICOTHE      N/A     50  49  96 NE15      29.65F
KIRKSVILLE     HVY RAIN  48  48 100 N13       29.69R FOG

$$
MOZ066>068-077>081-088>096-101>105-300800-
...SOUTHWEST MISSOURI...

CITY           SKY/WX    TMP DP  RH WIND       PRES   REMARKS
SPRINGFIELD    PTCLDY    54  51  90 S6        29.64F
JOPLIN         CLEAR     49  45  86 SW10      29.66S

$$
MOZ032>034-039>042-045>050-055>058-069>072-300800-
...CENTRAL MISSOURI...

CITY           SKY/WX    TMP DP  RH WIND       PRES   REMARKS
COLUMBIA       CLOUDY    60  60 100 SE5       29.62S
JEFFERSON CITY LGT RAIN  62  59  90 SE5       29.61F
ROLLA          LGT RAIN  62  61  96 SE8       29.61F
SEDALIA        FOG       56  56 100 SE5       29.61F VSB<1/4
WHITEMAN AFB   FOG       54  54 100 SE2       29.59S VSB 3/16
WARRENSBURG    FOG       52  52 100 CALM      29.61R VSB 1/2
OSAGE BEACH    RAIN      62  59  90 SW3       29.63F

$$
MOZ051-052-059>065-300800-
...EAST CENTRAL MISSOURI...

CITY           SKY/WX    TMP DP  RH WIND       PRES   REMARKS
ST LOUIS INTL  LGT RAIN  59  56  89 E5        29.69F
SPIRIT OF STL  LGT RAIN  60  58  92 E5        29.66F
ST CHARLES     CLOUDY    57  57 100 E10       29.68F

$$
MOZ072>076-082>087-097>100-106>115-300800-
...SOUTH CENTRAL AND SOUTHEAST MISSOURI...

CITY           SKY/WX    TMP DP  RH WIND       PRES   REMARKS
CAPE GIRARDEAU CLOUDY    69  57  65 SW8       29.70F
FARMINGTON     TSTM      62  57  83 S14G24    29.72R
POPLAR BLUFF   LGT RAIN  69  59  70 S16G23    29.69R
WEST PLAINS    CLOUDY    62  58  86 S5        29.68

$$




USA.gov is the U.S. government's official web portal to all federal, state and local government web resources and services.